Regional Weather Roundup
Issued by NWS

Home | Current Version | Previous Version | Graphics & Text | Print | Product List | Glossary On
Versions: 1 2 3 4 5 6 7 8 9 10 11 12 13 14 15 16 17 18 19 20 21 22 23 24 25 26 27 28 29 30 31 32 33 34 35 36 37 38 39 40 41 42 43 44 45 46 47 48 49 50
000
ASUS43 KOAX 181502
RWRNE

WEATHER ROUNDUP FOR NEBRASKA
NATIONAL WEATHER SERVICE OMAHA NE
1000 AM CDT SAT APR 18 2015

NOTES: SATELLITE DATA IS BEING USED TO AUGMENT CLOUD COVER ABOVE
       12000 FEET.
       "FAIR" INDICATES FEW OR NO CLOUDS BELOW 12,000 FEET WITH NO
       SIGNIFICANT WEATHER AND/OR OBSTRUCTIONS TO VISIBILITY.

  * THESE STATIONS DO NOT REPORT WEATHER SUCH AS RAIN...SNOW OR FOG.

NEZ001>004-019>022-054>056-181600-
NEBRASKA PANHANDLE

CITY           SKY/WX    TMP DP  RH WIND       PRES   REMARKS
SCOTTSBLUFF    CLOUDY    46 N/A N/A W5        29.93S
ALLIANCE       CLOUDY    47  44  90 SE3       29.92R
CHADRON        CLOUDY    47  44  90 NE10      29.95R
SIDNEY         CLOUDY    43  41  93 NW5       29.94R
$$

NEZ057>060-069>072-079>082-181600-
SOUTHWEST NEBRASKA

CITY           SKY/WX    TMP DP  RH WIND       PRES   REMARKS
NORTH PLATTE   PTSUNNY   53  49  86 NE3       29.90F
IMPERIAL       SUNNY     51  46  83 CALM      29.92R
LEXINGTON      PTSUNNY   54  52  92 CALM      29.90F
MCCOOK         SUNNY     54  47  77 E6        29.90F
$$

NEZ005>010-023>029-035>040-094-181600-
NORTH CENTRAL NEBRASKA

CITY           SKY/WX    TMP DP  RH WIND       PRES   REMARKS
VALENTINE      CLOUDY    51  48  89 NE12      29.92F
AINSWORTH      CLOUDY    52  50  95 NE10      29.91F
BROKEN BOW     CLOUDY    56  52  86 N3        29.89F
ORD            CLOUDY    56  53  90 E9        29.89R
$$

NEZ041-046>049-061>064-073>077-083>087-181600-
SOUTH CENTRAL NEBRASKA

CITY           SKY/WX    TMP DP  RH WIND       PRES   REMARKS
GRAND ISLAND   CLOUDY    57  55  93 NE9       29.89F
HASTINGS       CLOUDY    57  55  93 N5        29.89R
KEARNEY *      CLOUDY    57  54  88 W3        29.89F
YORK           CLOUDY    59  57  94 E8        29.90R
$$

NEZ011>018-030>034-042>045-181600-
NORTHEAST NEBRASKA

CITY           SKY/WX    TMP DP  RH WIND       PRES   REMARKS
BLAIR          CLOUDY    62  56  81 E6        29.91R
COLUMBUS *     CLOUDY    55  52  88 NE10      29.91F
FREMONT        RAIN      62  57  83 SE10      29.92R
TEKAMAH        CLOUDY    64  56  75 SE10      29.91S
$$

NEZ050>053-065>068-078-088>093-181600-
SOUTHEAST NEBRASKA

CITY           SKY/WX    TMP DP  RH WIND       PRES   REMARKS
LINCOLN        LGT RAIN  59  58  96 E5        29.92F FOG
OMAHA EPPLEY   CLOUDY    65  57  75 SE9       29.90F
FALLS CITY     CLOUDY    63  57  81 CALM      29.89F
PLATTSMOUTH    CLOUDY    63  56  78 S8        29.92R
$$

NEZ044-045-051>053-067-181600-
OMAHA AREA

CITY           SKY/WX    TMP DP  RH WIND       PRES   REMARKS
OMAHA EPPLEY   CLOUDY    65  57  75 SE9       29.90F
BLAIR          CLOUDY    62  56  81 E6        29.91R
FREMONT        RAIN      62  57  83 SE10      29.92R
OFFUTT AFB     TSTM      64  57  77 S3        29.90S
PLATTSMOUTH    CLOUDY    63  56  78 S8        29.92R
$$



USA.gov is the U.S. government's official web portal to all federal, state and local government web resources and services.